Regional Weather Roundup
Issued by NWS

Home | Current Version | Previous Version | Text Only | Print | Product List | Glossary On
Versions: 1 2 3 4 5 6 7 8 9 10 11 12 13 14 15 16 17 18 19 20 21 22 23 24 25 26 27 28 29 30 31 32 33 34 35 36 37 38 39 40 41 42 43 44 45 46 47 48 49 50
000
ASUS43 KDTX 190510
RWRMI
MICHIGAN HOURLY REGIONAL WEATHER ROUNDUP
NATIONAL WEATHER SERVICE DETROIT/PONTIAC MI
1200 AM EST FRI JAN 19 2018

NOTE: "FAIR" INDICATES FEW OR NO CLOUDS BELOW 12,000 FEET WITH NO
SIGNIFICANT WEATHER AND/OR OBSTRUCTION TO VISIBILITY.

MIZ047>049-052>055-059>063-066>070-074>076-081>083-190600-
SOUTHEAST LOWER MICHIGAN

CITY           SKY/WX    TMP DP  RH WIND       PRES   REMARKS
ADRIAN         FAIR      23  14  68 W13G20    30.00F WCI  11
ALMA           FAIR      26  21  80 SW8       29.90S WCI  18
ANN ARBOR      FAIR      21  14  74 S8        29.96F WCI  11
BAD AXE        FAIR      25  16  69 SW9       29.87S WCI  15
CARO           FAIR      26  18  71 SW10      29.89S WCI  16
DETROIT CITY   FAIR      25  14  63 W14       29.95F WCI  13
DETROIT        FAIR      24  15  68 SW15      29.98F WCI  11
FLINT          FAIR      25  16  68 SW10      29.93R WCI  15
GROSSE ILE     FAIR      26  15  63 W10G21    29.98S WCI  16
HILLSDALE      FAIR      27  14  59 SW10G18   29.96S WCI  17
HOWELL         FAIR      26  18  73 SW12G18   29.93R WCI  15

CITY           SKY/WX    TMP DP  RH WIND       PRES   REMARKS
JACKSON        FAIR      25  15  66 SW20      29.95S WCI  11
LAMBERTVILLE   FAIR      26  14  61 SW14G24   30.00F WCI  14
LANSING        FAIR      25  18  74 SW9       29.94S WCI  15
LAPEER         FAIR      27  17  66 W9G18     29.91S WCI  17
MASON          FAIR      27  16  62 SW10G16   29.94S WCI  18
MONROE         FAIR      24  13  61 SW14G21   29.99F WCI  12
MT. CLEMENS    FAIR     N/A N/A N/A W14         N/A
PONTIAC        FAIR      26  17  68 W13       29.92R WCI  15
PORT HOPE        N/A     26  17  68 SW7       29.85S WCI  18
PORT HURON     FAIR      23  14  68 SW5       29.93S WCI  17
TRI CITIES     FAIR      26  19  74 SW15      29.89S WCI  14
MIDLAND        FAIR      29  23  76 SW7       29.87F WCI  22
TROY           FAIR      24  15  68 SW9       29.96S WCI  15
SAGINAW HB     FAIR      28  19  69 SW12      29.89S WCI  18
$$
MIZ043>046-050>051-056>058-064>065-071>073-077>080-190600-
SOUTHWEST LOWER MICHIGAN

CITY           SKY/WX    TMP DP  RH WIND       PRES   REMARKS
BATTLE CREEK   FAIR      26  17  68 SW15      29.96S WCI  14
BENTON HARBOR  FAIR      30  18  60 SW15G21   29.99F WCI  19
BIG RAPIDS     FAIR      29  22  74 SW12      29.85S WCI  19
COLDWATER      FAIR      25  16  68 SW15G21   29.98F WCI  12
FREMONT        FAIR      30  20  66 SW12      29.89S WCI  20
HOLLAND        FAIR      33  25  72 SW17G26   29.94F WCI  22
GRAND RAPIDS   FAIR      29  22  75 SW20      29.92F WCI  16
IONIA          FAIR      27  19  74 SW15      29.91S WCI  15
KALAMAZOO      FAIR      27  17  66 SW13      29.97S WCI  16
LUDINGTON      FAIR      32  26  78 SW10      29.86S WCI  23
MARSHALL       FAIR      25  15  68 SW14G20   29.95F WCI  13
MOUNT PLEASANT FAIR      30  22  72 SW8       29.86F WCI  22
MUSKEGON       FAIR      34  24  67 SW14      29.93S WCI  25
SOUTH HAVEN    FAIR      32  24  71 SW14G24   29.97F WCI  22
$$
MIZ016>042-190600-
NORTHERN LOWER MICHIGAN

CITY           SKY/WX    TMP DP  RH WIND       PRES   REMARKS
ALPENA         CLOUDY    32  25  75 SW6       29.80S WCI  26
BEAVER ISLAND  CLOUDY    34  29  83 SW8       29.76S WCI  27
BELLAIRE       CLOUDY    32  28  86 SW8       29.80S WCI  25
CADILLAC       FAIR      21  21  98 SW5       29.81S WCI  15
CHARLEVOIX     CLOUDY    34  29  83 SW9       29.81S WCI  27
FRANKFORT      FAIR      34  26  73 W12G18    29.82S WCI  26
GAYLORD        CLOUDY    29  25  85 SW15      29.75F WCI  18
GRAYLING       CLOUDY    29  23  77 SW6       29.80S WCI  23
HARBOR SPRINGS CLOUDY    32  28  86 SW7       29.77S WCI  26
HOUGHTON LAKE  FAIR      25  21  85 SW7       29.81F WCI  17
MANISTEE       FAIR      30  24  78 SW8       29.84S WCI  22
OSCODA         CLOUDY    29  22  75 SW16      29.82S WCI  17
PELLSTON       CLOUDY    33  28  81 SW5       29.77F WCI  29
ROGERS CITY    CLOUDY    32  26  78 W7        29.79S WCI  26
TRAVERSE CITY  FAIR      30  24  78 SW6       29.81R WCI  24
$$
MIZ007>008-015-190600-
EASTERN UPPER MICHIGAN

CITY           SKY/WX    TMP DP  RH WIND       PRES   REMARKS
KINROSS        CLOUDY    29  24  82 W6        29.74F WCI  23
MACKINAC ISLAN CLOUDY    32  27  81 SW12      29.75S WCI  23
NEWBERRY       CLOUDY    28  25  87 SW8       29.72F WCI  20
S. S. MARIE    CLOUDY    31  25  78 SW5       29.73F WCI  26
MUNISING         N/A     30  25  81 SW6       29.72F WCI  24
$$
MIZ004>006-011>014-085-190600-
CENTRAL UPPER MICHIGAN

CITY           SKY/WX    TMP DP  RH WIND       PRES   REMARKS
MANISTIQUE     CLOUDY    30  28  91 SW3       29.74F
ESCANABA       CLOUDY    27  24  89 SW6       29.75F WCI  20
MENOMINEE      FAIR      25  20  81 SW7       29.78F WCI  17
SAWYER-GWINN   CLOUDY    29  24  81 SW5       29.71R WCI  24
$$
MIZ001>003-009>011-084-190600-
WESTERN UPPER MICHIGAN

CITY           SKY/WX    TMP DP  RH WIND       PRES   REMARKS
IRON MOUNTAIN  FAIR      21  18  88 CALM      29.72F
HOUGHTON       CLOUDY    31  24  75 SW3       29.67S
COPPER HARBOR    N/A     34  28  79 VRB5      29.68R WCI  30
IRONWOOD       FAIR      27  22  81 SW7       29.70S WCI  19
$$

ABBREVIATIONS USED IN REMARKS
   TC - TEMPERATURE IN CELSIUS
  WCI - WIND CHILL INDEX
   HX - HEAT INDEX
  VSB - VISIBILITY





USA.gov is the U.S. government's official web portal to all federal, state and local government web resources and services.